Location: Buda (historical)
(38.2931°N, 100.1699°W)
Time: 05:44:35
(UTC+00:00)

Daily predictions for brighter satellites

Satellite Brightness Start Highest point End
(mag) Time Altitude Azimuth Time Altitude Azimuth Time Altitude Azimuth
Cosmos 1400 Rocket 3.9 00:01:07 10° NNW 00:04:55 48° W 00:08:39 10° S
Cosmos 2221 4.3 00:05:06 10° ESE 00:07:04 13° E 00:08:09 12° ENE
BlueWalker 3 3.5 00:04:58 10° W 00:08:26 29° NNW 00:11:53 10° NNE
Cosmos 2278 3.9 00:03:25 10° NNW 00:09:06 80° WSW 00:14:46 10° SSE
COSMOS 2487 2.6 00:07:53 10° SSE 00:09:28 19° ESE 00:10:01 18° E
Nadezhda 3 Rocket 4.3 00:03:57 10° N 00:10:01 46° ENE 00:16:04 10° SSE
Cosmos 2322 Rocket 2.7 00:06:29 10° N 00:11:40 37° ENE 00:16:48 10° SE
SEDSat Delta rocket 4.2 00:08:59 10° WSW 00:12:34 30° S 00:16:08 10° ESE
NOAA 6 4.2 00:08:01 10° SSE 00:13:00 52° ENE 00:17:59 10° N
USA 290 3.2 00:10:26 10° N 00:13:10 26° ENE 00:15:54 10° SE
Cosmos 389 Rocket 2.5 00:11:54 10° N 00:15:08 47° ENE 00:18:23 10° SSE
DELTA 2 DEB (DPAF) 4.4 00:13:18 10° N 00:17:42 72° WNW 00:22:05 10° SSW
SL-4 R/B 3.2 00:15:40 10° W 00:19:42 36° NNW 00:23:09 12° NE
Cosmos 2333 Rocket 3.4 00:16:47 10° N 00:20:51 20° NE 00:23:25 15° E
DMSP B5D2-2 4.2 00:15:52 10° NNE 00:20:57 52° E 00:26:01 10° S
Cosmos 405 3.2 00:20:37 10° NNW 00:23:52 64° W 00:27:07 10° S
Cosmos 1315 Rocket 2.8 00:21:22 10° N 00:25:25 64° E 00:29:28 10° SSE
Cosmos 1331 Rocket 4.1 00:22:16 10° S 00:27:23 59° ESE 00:32:36 10° NNE
Cosmos 1610 Rocket 4.4 00:23:16 10° S 00:29:21 76° E 00:35:33 10° N
Meteor PRIRODA 3.7 00:26:17 10° S 00:29:53 77° WSW 00:33:32 10° NNW
ARGOS Delta rocket 3.7 00:25:45 10° NNE 00:30:23 83° E 00:35:17 10° S
OBJECT-B 0.5 00:30:18 34° ENE 00:30:45 38° E 00:33:03 10° S
CZ-4B R/B 2.4 00:28:17 10° SSE 00:31:49 80° ENE 00:35:29 10° N
SeaSat 1 2.7 00:27:01 10° NNE 00:31:56 69° WNW 00:36:49 10° SW
ATLAS 5 CENTAUR R/B 2.8 00:26:34 10° NW 00:32:14 68° WSW 00:39:02 10° SSE
Cosmos-2242 3.4 00:30:24 10° SSW 00:34:36 66° W 00:38:52 10° N
SKYMED 2 3.5 00:35:26 10° NNE 00:39:46 66° ESE 00:44:04 10° S
Cosmos 2327 Rocket 4.5 00:33:55 10° S 00:40:19 81° E 00:46:41 10° N
Cosmos 2341 Rocket 4.2 00:37:41 10° SSE 00:43:45 49° E 00:49:50 10° NNE
Iridium 4 Rocket 4.1 00:39:14 10° SSE 00:44:24 37° E 00:49:16 10° NNE
SKYMED 3 4.5 00:44:02 12° NNE 00:47:52 61° E 00:52:03 10° S
Cosmos 2360 Rocket 2.3 00:43:00 10° NNW 00:48:28 49° ENE 00:53:55 10° SE
USA 267 3.4 00:45:56 22° ENE 00:50:08 54° SE 00:56:31 10° SSW
Cosmos 1607 3.9 00:44:27 10° NNW 00:50:43 80° ENE 00:57:01 10° SSE
BREEZE-M DEB (TANK) 4.1 00:48:00 10° NW 00:51:07 16° N 00:51:56 15° N
MINOTAUR 4 R/B 3.9 00:51:07 36° NE 00:52:18 60° ESE 00:55:43 10° S
COBE Rocket 3.8 00:48:22 10° SSE 00:53:12 76° ENE 00:58:13 10° N
Cosmos 1340 3.0 00:50:26 10° SSW 00:54:04 63° W 00:57:45 10° N
Meteor 1-20 Rocket 4.4 00:50:08 10° N 00:55:35 47° ENE 01:01:06 10° SSE
Cosmos 1741 Rocket 3.9 00:51:43 10° NNW 00:57:01 87° ENE 01:02:19 10° SSE
Orbus 7S? 4.3 00:56:45 10° WSW 01:00:35 32° NW 01:01:40 24° N
Cosmos 2237 4.4 00:56:49 10° NNW 01:02:33 75° WSW 01:08:14 10° SSE
CZ-4B R/B 3.5 01:00:08 10° SE 01:05:25 43° ENE 01:10:40 10° N
CZ-4B DEB 4.1 01:02:32 10° SSE 01:08:05 88° ENE 01:13:41 10° NNW
NOSS 2-3 (E) 4.4 01:04:48 10° S 01:07:02 28° SSE 01:07:02 28° SSE
Spot 1 4.5 01:06:45 34° NE 01:08:44 56° E 01:13:46 10° S
CZ-4 R/B 4.4 01:06:35 10° S 01:10:43 83° WSW 01:14:54 10° NNW
Cosmos 1959 Rocket 4.4 01:07:43 10° S 01:13:41 57° E 01:18:06 18° NNE
Cosmos 1302 Rocket 3.8 01:10:36 10° SSW 01:15:50 78° ESE 01:17:57 37° NNE
PSLV R/B 4.0 01:12:55 10° SSE 01:17:36 58° N 01:20:57 10° N
SL-16 R/B 3.6 01:15:27 10° NW 01:20:41 39° WSW 01:25:54 10° S
Cosmos 1842 Rocket 4.2 01:17:58 10° S 01:21:03 42° SSE 01:21:03 42° SSE
USA 234 4.3 01:22:29 26° NNE 01:22:54 26° NNE 01:28:08 10° NNW
OAO 2 Rocket 3.5 01:18:55 10° WSW 01:23:57 59° S 01:24:38 54° SE
ATLAS 3B R/B 2.6 01:17:29 10° SSW 01:24:05 86° WNW 01:27:44 31° NNE
Cosmos 864 Rocket 4.3 01:19:13 10° S 01:25:17 74° E 01:30:21 16° NNE
Tiangong 0.7 01:24:32 10° SSW 01:25:06 13° SSW 01:25:06 13° SSW
COSMO-SKYMED 1 4.1 01:23:46 10° N 01:27:43 34° WNW 01:31:38 10° SW
Lacrosse 5 rocket 2.5 01:27:40 10° NW 01:30:38 37° NNW 01:30:38 37° NNW
Cosmos 2219 Rocket 3.0 01:28:45 10° NNW 01:32:16 35° NNE 01:32:16 35° NNE
Meteor 1-25 Rocket 4.1 01:30:50 10° N 01:36:27 86° W 01:42:00 10° S
Cosmos 2221 3.5 01:39:53 10° SSW 01:44:04 46° W 01:45:01 39° NW
SL-8 Rocket 4.3 01:38:24 10° SSW 01:44:38 64° W 01:50:50 10° N
CZ-4C R/B 2.9 01:41:29 10° WSW 01:45:47 40° NW 01:47:01 34° NNW
Cosmos 2333 4.1 01:44:23 10° NNW 01:49:59 83° WSW 01:49:59 83° WSW
Timation 1 Rocket 4.4 01:45:28 10° SSW 01:50:30 64° S 01:50:30 64° S
Cosmos 2366 rocket 4.3 01:46:50 10° SSW 01:53:00 65° W 01:59:18 10° N
Cosmos 2322 Rocket 4.1 01:50:48 10° NW 01:55:31 28° WSW 02:00:13 10° SSW
Cosmos 2218 Rocket 4.4 01:51:04 10° SSW 01:57:19 61° W 02:03:40 10° N
NOSS 3-1 (C) 4.4 01:59:34 10° SSW 02:01:56 29° SSW 02:01:56 29° SSW
Cosmos 2333 Rocket 2.6 01:59:59 10° NNW 02:05:32 59° WSW 02:05:34 59° WSW
Cosmos 2360 Rocket 4.4 02:27:55 10° NW 02:32:03 21° W 02:36:10 10° SSW
USA 267 4.0 02:33:18 44° NW 02:33:18 44° NW 02:39:08 10° WSW
H-2A ROCKET BODY 4.3 02:44:16 10° W 03:01:18 34° SW 03:01:28 34° SSW
ATLAS CENTAUR R/B 4.2 10:00:45 68° ESE 10:00:45 68° ESE 10:14:12 10° SE
Atlas Centaur 2 3.8 10:47:10 26° SSE 10:47:10 26° SSE 10:51:05 10° SE
ATLAS 3B R/B 3.5 10:51:25 42° SSW 10:51:25 42° SSW 10:56:35 10° S
CZ-4C R/B 4.1 11:01:59 30° SSW 11:01:59 30° SSW 11:06:57 10° S
SL-08 R/B 4.0 10:54:40 10° SSE 10:58:59 55° E 10:58:59 55° E
DELTA 2 R/B (1) 3.8 11:00:55 68° E 11:00:55 68° E 11:05:48 10° ENE
GEOS 3 Rocket 4.1 11:06:06 10° NE 11:11:23 61° ESE 11:14:17 27° SSW
BREEZE-M DEB (TANK) 4.4 11:15:45 26° N 11:15:45 26° N 11:18:33 10° NE
Spot 4 Rocket 4.0 11:15:42 10° NNE 11:20:53 84° ESE 11:26:03 10° SSW
NOSS 3-1 (A) 4.3 11:18:02 28° NNW 11:22:45 74° NE 11:31:47 10° SE
BREEZE-M DEB (TANK) 4.1 11:24:43 15° NE 11:24:43 15° NE 11:25:25 10° ENE
Cosmos 1812 Rocket 3.6 11:25:48 73° SSE 11:25:48 73° SSE 11:29:43 10° S
Cosmos 1269 Rocket 4.0 11:22:26 10° SSW 11:27:41 79° ESE 11:32:59 10° NNE
NOSS 3-1 (C) 4.1 11:26:33 40° NW 11:29:40 65° WSW 11:38:34 10° SSE
Blok-L 4.0 11:27:14 10° SSW 11:33:01 65° ESE 11:37:31 10° NE
Nadezhda 1 Rocket 3.9 11:28:16 10° S 11:34:19 84° E 11:40:27 10° N
USA 276 4.0 11:36:35 24° SSE 11:37:03 25° SE 11:39:34 10° ENE
DMSP B5D2-2 4.4 11:33:08 10° SSE 11:38:19 66° ENE 11:43:29 10° N
ARGOS Delta rocket 4.0 11:35:14 10° SSE 11:39:43 65° ENE 11:44:02 10° N
Cosmos 2297 Rocket 4.0 11:35:25 10° N 11:40:16 28° ENE 11:45:04 10° ESE
SJ-6F 4.3 11:37:21 10° NNE 11:41:29 88° ESE 11:45:35 10° SSW
Cosmos 1302 Rocket 3.8 11:42:58 36° NNW 11:45:03 71° WSW 11:50:12 10° S
USA 305 3.9 11:44:16 14° SSW 11:47:27 42° SE 11:51:14 10° ENE
CZ-2C R/B 2.5 11:43:46 10° N 11:47:34 77° WNW 11:51:16 10° SSW
Cosmos 614 Rocket 4.0 11:42:42 10° S 11:47:46 76° ESE 11:52:55 10° NNE
Cosmos 2221 4.3 11:48:00 10° NNE 11:51:55 32° ENE 11:55:47 10° SE
